[[{"header":{"parameterUnit":"m.s-1","parameterCategory":1,"la1":30.2991,"la2":30.254,"lo1":-89.0895,"lo2":-89.0444,"dy":0.0017,"dx":0.0017,"nx":28,"ny":28,"refTime":"2025-07-08T09:00:00:Z","depth":0,"parameterNumber":2,"parameterNumberName":"U-component_of_WINDS"},"data":[0,0,0,0,0,0,0,0,0,0,0,0,0,0,0,0,0,0,0,0,0,0,0,0,0,0,0,0,0,0,0,0,0,0,0,0,0,0,0,0,0,0,0,0,0,0,0,0,0,0,0,0,0,0,0,0,0,0,5.8029,5.8032,0,5.8259,5.8262,5.8264,5.8225,5.8221,5.8217,5.8213,5.8451,5.8461,5.8471,0,0,0,0,0,0,0,0,0,0,0,0,0,5.7556,5.7565,5.8029,5.8032,5.8035,5.8259,5.8262,5.8265,5.8226,5.8221,5.8216,5.8211,5.8448,5.8459,5.8471,0,0,0,0,0,0,0,0,0,0,0,0,0,5.7772,5.7568,5.8028,5.8042,5.8045,5.8258,5.8262,5.8266,5.8227,5.8221,5.8215,5.8209,5.8444,5.8458,5.8473,5.8687,0,0,5.8519,5.8526,0,0,0,0,0,0,0,0,5.7759,5.7789,5.8037,5.8041,5.8046,5.8207,5.8182,5.8407,5.8228,5.8158,5.8213,5.8206,5.8375,5.8395,5.8452,5.8698,5.8708,5.8521,5.853,5.8536,5.8541,0,0,0,0,0,0,0,5.7745,5.7779,5.812,5.8041,5.8046,5.8037,5.8061,5.8225,5.8297,5.8164,5.8161,5.8189,5.8376,5.8437,5.8457,5.8712,5.852,5.8534,5.8543,5.8549,5.9143,5.915,0,0,0,0,0,0,5.7725,5.7767,5.8113,5.8127,5.7885,5.805,5.8077,5.8161,5.8296,5.831,5.8194,5.8186,5.8414,5.8439,5.8465,5.8722,5.8536,5.855,5.8559,5.9137,5.9145,5.9152,0,0,0,0,0,0,5.7715,5.7757,5.8103,5.7946,5.799,5.8065,5.816,5.8169,5.823,5.8318,5.8331,5.8243,5.841,5.8444,5.8631,5.873,5.8557,5.8571,5.9129,5.9139,5.9148,5.924,0,0,0,0,0,0,5.7702,5.7753,5.7835,5.7948,5.7998,5.8266,5.8166,5.8178,5.8256,5.8248,5.8368,5.8382,5.8408,5.8609,5.8646,5.8748,5.8583,5.912,5.9133,5.9145,5.9228,5.9252,5.9272,0,0,0,0,0,5.7685,5.7853,5.784,5.7882,5.8102,5.8272,5.83,5.8327,5.8264,5.8347,5.8403,5.8378,5.8714,5.8629,5.867,5.8778,5.9114,5.913,5.9144,5.9219,5.9247,5.9271,0,0,0,0,0,0,5.7751,5.7868,5.7855,5.8064,5.8158,5.8265,5.837,5.8357,5.8471,5.8459,5.8488,5.8515,5.8705,5.876,5.8664,5.8991,5.8905,5.8929,5.8947,5.8975,5.8997,5.8979,5.8595,0,0,0,0,0,5.779,5.7917,5.8013,5.8188,5.8236,5.8295,5.837,5.8382,5.8481,5.8521,5.8591,5.8688,5.8815,5.8899,5.9021,5.9237,5.9261,5.9331,5.9353,5.937,5.939,5.9506,5.9538,5.9202,5.9201,5.9201,0,0,5.7871,5.7951,5.803,5.8204,5.8278,5.8409,5.8329,5.8472,5.8569,5.8543,5.8723,5.8778,5.8889,5.9091,5.9183,5.9143,5.9488,5.9389,5.9403,5.9414,5.9525,5.9557,5.9585,5.9212,5.921,5.9208,0,0,5.8086,5.816,5.8313,5.8389,5.8502,5.854,5.8576,5.8685,5.872,5.8902,5.8884,5.9,5.9219,5.9298,5.9367,5.961,5.959,5.9649,5.9762,5.9875,5.9901,5.9925,6.0009,6.004,5.9669,5.9669,5.9669,0,5.8174,5.837,5.8394,5.8538,5.8614,5.8595,5.875,5.8822,5.897,5.9023,5.8975,5.9247,5.9321,5.954,5.9599,5.9656,5.9698,5.9635,5.9895,5.9919,5.9942,6.0023,6.0055,5.9675,5.9675,5.9674,5.9673,0,5.8471,5.8607,5.8717,5.8858,5.8947,5.9096,5.9142,5.9229,5.9233,5.9275,5.946,5.9547,5.9685,5.9738,5.9744,5.9958,5.9929,5.9888,5.9802,5.9979,6.0056,6.0087,5.9684,5.9682,5.968,5.9679,0,0,5.8734,5.8885,5.8925,5.8987,5.911,5.9216,5.9363,5.9497,5.957,5.9672,5.9796,5.998,5.9943,6.0021,6.0036,6.0135,6.0319,6.0082,6.0085,6.0121,6.0557,6.0585,6.062,6.0307,6.0313,6.0318,6.0547,0,5.8959,5.9218,5.9243,5.9475,5.96,5.9583,5.9711,5.98,5.9844,5.9956,6.0005,6.0134,6.0077,6.0123,6.022,6.0276,6.0406,6.026,6.0421,6.0426,6.0392,6.0661,6.0692,6.0904,6.0577,6.0582,6.0586,0,5.9257,5.9365,5.9609,5.9712,5.9765,5.988,6.0003,6.0112,6.0211,6.0236,6.0322,6.0323,6.0474,6.0383,6.0591,6.0491,6.0558,6.0595,6.0604,6.0619,6.0515,6.0681,6.0972,6.1003,6.0634,6.063,6.0626,0,5.9421,5.9629,5.9801,5.9856,5.998,6.0061,6.0117,6.021,6.0288,6.0397,6.0447,6.0573,6.0641,6.0737,6.0772,6.0703,6.0978,6.089,6.1001,6.1,6.1059,6.1054,6.1363,6.1106,6.1105,6.1105,6.1104,0,5.9669,5.9819,5.9876,5.9982,6.0149,6.0176,6.034,6.0392,6.0475,6.059,6.0584,6.0692,6.0732,6.0847,6.0875,6.1042,6.1073,6.1097,6.1102,6.1096,6.1093,6.114,6.1125,6.1113,6.1111,6.111,6.1108,0,5.9881,5.9926,6.0112,6.0214,6.0243,6.0361,6.0448,6.055,6.0591,6.0737,6.0773,6.0838,6.0973,6.1017,6.118,6.1199,6.1392,6.1386,6.1358,6.1359,6.1466,6.1455,6.1814,6.1862,6.1575,6.1578,6.158,0,6.0036,6.015,6.0263,6.0339,6.0397,6.0521,6.0599,6.063,6.0713,6.0834,6.0921,6.1054,6.1162,6.1377,6.144,6.1564,6.1559,6.1677,6.1578,6.1568,6.1558,6.155,6.1561,6.1695,6.1698,6.17,6.1702,0,6.0304,6.032,6.0433,6.0555,6.0649,6.0746,6.084,6.0903,6.0947,6.104,6.1177,6.126,6.1426,6.1557,6.1684,6.1741,6.1729,6.1733,6.1764,6.1759,6.1737,6.1748,6.1407,6.1724,6.1722,6.172,6.1719,6.1718,6.0491,6.059,6.0685,6.0811,6.0884,6.0972,6.1071,6.1124,6.1238,6.1374,6.1386,6.1533,6.1628,6.1796,6.186,6.1975,6.1942,6.1989,6.2,6.2011,6.2018,6.172,6.1999,6.1998,6.1998,6.1997,6.1997,0,6.0757,6.0816,6.0932,6.1062,6.1161,6.114,6.1242,6.1327,6.1455,6.1545,6.165,6.1806,6.1933,6.2005,6.2132,6.221,6.2207,6.2242,6.2236,6.2249,6.2042,6.2,6.2242,6.2242,6.2242,6.2242,6.2242,6.2241,6.0907,6.1073,6.11,6.1302,6.1361,6.1504,6.1563,6.1644,6.1715,6.1888,6.1993,6.2039,6.2121,6.2253,6.2368,6.2386,6.2432,6.247,6.2484,6.2289,6.2264,6.224,6.2201,6.248,6.2481,6.2681,6.2683,6.2684]},{"header":{"parameterUnit":"m.s-1","parameterCategory":1,"la1":30.2991,"la2":30.254,"lo1":-89.0895,"lo2":-89.0444,"dy":0.0017,"dx":0.0017,"nx":28,"ny":28,"refTime":"2025-07-08T09:00:00:Z","depth":0,"parameterNumber":3,"parameterNumberName":"V-component_of_WINDS"},"data":[0,0,0,0,0,0,0,0,0,0,0,0,0,0,0,0,0,0,0,0,0,0,0,0,0,0,0,0,0,0,0,0,0,0,0,0,0,0,0,0,0,0,0,0,0,0,0,0,0,0,0,0,0,0,0,0,0,0,1.0148,1.0148,0,1.0173,1.0173,1.0173,1.0148,1.0147,1.0146,1.0145,1.0172,1.0174,1.0176,0,0,0,0,0,0,0,0,0,0,0,0,0,1.0078,1.0079,1.0148,1.0148,1.0148,1.0173,1.0173,1.0174,1.0148,1.0147,1.0146,1.0145,1.0172,1.0174,1.0176,0,0,0,0,0,0,0,0,0,0,0,0,0,1.0106,1.008,1.0148,1.0139,1.0138,1.0173,1.0173,1.0174,1.0149,1.0147,1.0146,1.0144,1.0171,1.0173,1.0176,1.0221,0,0,1.0183,1.0185,0,0,0,0,0,0,0,0,1.0105,1.0109,1.014,1.0139,1.0139,1.0156,1.0158,1.019,1.0149,1.0145,1.0145,1.0144,1.0168,1.0171,1.0179,1.0222,1.0223,1.0184,1.0185,1.0186,1.0187,0,0,0,0,0,0,0,1.0103,1.0108,1.0158,1.014,1.014,1.0133,1.0136,1.0164,1.0165,1.0145,1.0143,1.0146,1.0168,1.0176,1.0179,1.0224,1.0184,1.0186,1.0187,1.0188,1.0304,1.0305,0,0,0,0,0,0,1.0102,1.0106,1.0157,1.0158,1.0118,1.0136,1.0139,1.0152,1.0164,1.0165,1.0148,1.0145,1.0173,1.0176,1.018,1.0233,1.0186,1.0189,1.019,1.0302,1.0304,1.0306,0,0,0,0,0,0,1.01,1.0106,1.0156,1.0132,1.0138,1.0139,1.0154,1.0153,1.0162,1.0166,1.0166,1.0157,1.0172,1.0177,1.0211,1.0233,1.019,1.0192,1.03,1.0303,1.0305,1.0339,0,0,0,0,0,0,1.0098,1.0106,1.0123,1.0132,1.0139,1.0186,1.0155,1.0155,1.0166,1.0163,1.0175,1.0175,1.0171,1.0207,1.0213,1.0236,1.0194,1.0298,1.0302,1.0304,1.0336,1.0342,1.0348,0,0,0,0,0,1.0096,1.0132,1.0124,1.0131,1.0161,1.0188,1.0191,1.0186,1.0168,1.0185,1.0188,1.0175,1.023,1.0211,1.0217,1.0241,1.0297,1.0301,1.0304,1.0333,1.0341,1.0348,0,0,0,0,0,0,1.0127,1.0134,1.0125,1.0165,1.0176,1.0183,1.0205,1.0194,1.0211,1.0207,1.02,1.0202,1.0238,1.0243,1.0222,1.0285,1.026,1.0266,1.028,1.0288,1.0294,1.0292,1.0196,0,0,0,0,0,1.0138,1.016,1.0164,1.0199,1.0205,1.0204,1.0216,1.021,1.0221,1.0226,1.0231,1.0242,1.0262,1.0275,1.0293,1.0336,1.0338,1.0356,1.0362,1.0367,1.0371,1.0393,1.0401,1.0318,1.0318,1.0318,0,0,1.0162,1.0169,1.0183,1.0206,1.0213,1.0235,1.0208,1.0233,1.0249,1.023,1.0262,1.0266,1.0278,1.0316,1.0333,1.0321,1.0394,1.0371,1.0375,1.0377,1.0398,1.0405,1.0412,1.032,1.032,1.0319,0,0,1.0217,1.0225,1.0254,1.0262,1.0274,1.0272,1.0279,1.0288,1.029,1.0322,1.0307,1.0326,1.036,1.0369,1.0378,1.0435,1.0423,1.0441,1.0472,1.0494,1.05,1.0506,1.0526,1.0533,1.0445,1.0446,1.0446,0,1.0246,1.0279,1.0271,1.0296,1.0306,1.0289,1.0318,1.0327,1.0344,1.0351,1.0337,1.0379,1.0386,1.0426,1.0439,1.0447,1.0455,1.044,1.05,1.0505,1.0511,1.0529,1.0537,1.0448,1.0447,1.0447,1.0447,0,1.0313,1.0335,1.0358,1.0374,1.0387,1.0414,1.041,1.0424,1.0417,1.0417,1.0449,1.0457,1.0476,1.0485,1.0479,1.0523,1.0515,1.0501,1.0476,1.0521,1.0538,1.0545,1.0451,1.045,1.0449,1.0449,0,0,1.0389,1.04,1.0408,1.0415,1.0425,1.0443,1.0469,1.0487,1.0498,1.0511,1.0532,1.0561,1.0547,1.0557,1.0551,1.057,1.0613,1.0553,1.0553,1.0564,1.0662,1.0673,1.0681,1.0605,1.0607,1.0608,1.0661,0,1.0444,1.0489,1.0482,1.0526,1.0546,1.0529,1.0552,1.0561,1.0561,1.0578,1.0579,1.0599,1.0579,1.0585,1.0603,1.0605,1.0633,1.0601,1.0625,1.0626,1.0623,1.069,1.0702,1.0752,1.0668,1.0669,1.067,0,1.0515,1.0528,1.0574,1.058,1.0588,1.0609,1.0624,1.0641,1.065,1.0649,1.0659,1.065,1.0676,1.065,1.0685,1.0663,1.0673,1.0675,1.0677,1.0679,1.0651,1.0694,1.0768,1.0775,1.068,1.068,1.0679,0,1.0565,1.0595,1.0626,1.0632,1.064,1.0655,1.0659,1.0667,1.0678,1.0691,1.0698,1.0714,1.0723,1.0736,1.0731,1.0713,1.0766,1.0741,1.0766,1.0766,1.0778,1.0778,1.0854,1.0785,1.0785,1.0784,1.0784,0,1.0627,1.0656,1.0648,1.0667,1.0698,1.069,1.072,1.0722,1.0729,1.0748,1.0734,1.0752,1.0744,1.0762,1.0758,1.0787,1.0791,1.0791,1.079,1.0792,1.0792,1.0798,1.0795,1.0786,1.0786,1.0786,1.0785,0,1.0689,1.0686,1.0718,1.0722,1.0724,1.0747,1.0751,1.0768,1.0767,1.0791,1.0796,1.0794,1.0813,1.0809,1.0831,1.0828,1.0865,1.0859,1.0862,1.086,1.0885,1.0883,1.0969,1.0979,1.0903,1.0904,1.0904,0,1.0729,1.075,1.0757,1.0768,1.0773,1.0792,1.0802,1.0794,1.0806,1.0817,1.0833,1.0851,1.0865,1.0897,1.0898,1.0914,1.0908,1.0937,1.0911,1.0912,1.0908,1.0907,1.0909,1.0943,1.0943,1.0944,1.0945,0,1.08,1.0797,1.0812,1.0827,1.084,1.0851,1.0861,1.0871,1.0864,1.0878,1.0897,1.0908,1.0929,1.0947,1.0961,1.0966,1.0954,1.0953,1.0959,1.0962,1.0962,1.0962,1.0876,1.0951,1.095,1.095,1.095,1.0949,1.0852,1.087,1.0876,1.0894,1.09,1.091,1.0926,1.0926,1.0942,1.0958,1.0953,1.0975,1.0982,1.1,1.1006,1.1023,1.1012,1.1022,1.1024,1.1027,1.1029,1.096,1.1026,1.1025,1.1025,1.1025,1.1025,0,1.0922,1.0925,1.0941,1.0955,1.0968,1.0955,1.0965,1.0978,1.0997,1.1005,1.1018,1.104,1.1057,1.1058,1.1074,1.1087,1.1082,1.1092,1.109,1.1091,1.1039,1.1031,1.1095,1.1095,1.1095,1.1095,1.1095,1.1095,1.096,1.0988,1.0986,1.1017,1.102,1.1041,1.1048,1.1056,1.1062,1.1086,1.11,1.1101,1.1106,1.1121,1.1136,1.1136,1.1142,1.1154,1.1152,1.1102,1.1095,1.1089,1.1081,1.1155,1.1155,1.1203,1.1203,1.1204]}]]